Date String (YYYY-MM-DD hh:mm:ss) UTC,Instrument flags,absolute air pressure of the measurement (hPa),sample flow rate (lpm),inlet stack bypass flow (lpm),air temperature of the measurement (°C),ambient temperature measured by the external sensor (°C),aerosol sample conditioner tube jacket temperature (°C),OPC LED temperature (°C),internal box temperature (°C),relative humidity of the measurement (%),span deviation,mass concentration of particles derived from Lorenz-Mie calculation of OPC scattering (μg/m³),mass concentration of particles derived from Lorenz-Mie calculation of OPC scattering (μg/m³),mass concentration of particles derived from Lorenz-Mie calculation of OPC scattering (μg/m³)
DateTimeUTC,F1_M11,P_M11,Q1_M11,Q2_M11,T1_M11,T2_M11,T3_M11,T4_M11,T5_M11,U1_M11,ZSPAN_M11,X0_M11,X2_M11,X1_M11
2023-06-27 17:00:00,SystemResetWarning,0825.6,4.99,000.00,031.1,025.4,000.0,039.3,031.2,31.7,0003.4,0027.75,0010.27,0007.93
2023-06-27 17:01:00,SystemResetWarning,0825.6,5.00,000.00,031.0,025.9,000.0,039.3,031.2,31.8,0003.2,0028.06,0010.25,0007.94
2023-06-27 17:02:00,SystemResetWarning,0825.6,5.00,000.00,030.9,026.3,000.0,039.3,031.2,30.7,0003.0,0027.56,0010.24,0007.98
2023-06-27 17:03:00,SystemResetWarning,0825.6,4.98,000.00,030.9,026.8,000.0,039.3,031.3,31.6,0003.2,0025.80,0010.24,0008.01
2023-06-27 17:04:00,SystemResetWarning,0825.6,4.99,000.00,030.9,027.1,000.0,039.2,031.3,33.9,0003.5,0025.66,0010.28,0008.06
2023-06-27 17:05:00,SystemResetWarning,0825.6,4.99,000.00,030.9,027.4,000.0,039.2,031.4,35.0,0003.8,0026.06,0010.32,0008.12
2023-06-27 17:06:00,SystemResetWarning,0825.5,5.02,000.00,030.9,027.6,000.0,039.2,031.5,36.2,0003.8,0025.82,0010.33,0008.19
2023-06-27 17:07:00,SystemResetWarning,0825.6,4.99,000.00,031.2,026.4,000.0,039.1,031.7,33.7,0003.7,0025.17,0010.33,0008.22
2023-06-27 17:08:00,SystemResetWarning,0825.6,4.99,000.00,031.3,025.2,000.0,039.1,031.7,33.3,0003.5,0026.35,0010.28,0008.26
2023-06-27 17:09:00,SystemResetWarning,0825.6,5.02,000.00,031.4,025.0,000.0,039.0,031.7,32.9,0003.6,0026.59,0010.29,0008.28
2023-06-27 17:10:00,SystemResetWarning,0825.6,5.00,000.00,031.3,025.3,000.0,039.1,031.3,33.9,0004.0,0026.06,0010.28,0008.31
2023-06-27 17:11:00,SystemResetWarning,0825.6,4.98,000.00,031.2,025.8,000.0,039.1,031.2,35.8,0004.2,0025.80,0010.30,0008.33
2023-06-27 17:12:00,SystemResetWarning,0825.7,5.02,000.00,031.3,026.2,000.0,039.1,031.3,33.8,0004.3,0025.13,0010.31,0008.34
2023-06-27 17:13:00,SystemResetWarning,0825.7,4.97,000.00,031.4,026.7,000.0,039.2,031.4,33.9,0004.3,0025.97,0010.33,0008.35
2023-06-27 17:14:00,SystemResetWarning,0825.6,5.02,000.00,031.4,027.0,000.0,039.2,031.4,33.6,0004.3,0025.60,0010.36,0008.37
2023-06-27 17:15:00,SystemResetWarning,0825.6,4.99,000.00,031.4,027.4,000.0,039.2,031.5,31.9,0004.1,0026.80,0010.35,0008.37
2023-06-27 17:16:00,SystemResetWarning,0825.5,5.00,000.00,031.5,027.6,000.0,039.3,031.6,32.1,0004.0,0027.66,0010.33,0008.35
2023-06-27 17:17:00,SystemResetWarning,0825.5,4.99,000.00,031.5,026.6,000.0,039.3,031.7,32.8,0003.8,0027.22,0010.31,0008.30
2023-06-27 17:18:00,SystemResetWarning,0825.4,5.00,000.00,031.5,025.2,000.0,039.2,031.6,32.9,0000.7,0027.02,0010.36,0008.29
2023-06-27 17:19:00,SystemResetWarning,0825.5,5.01,000.00,031.5,025.0,000.0,039.2,031.5,31.6,0000.0,0026.19,0010.40,0008.28
2023-06-27 17:20:00,SystemResetWarning,0825.5,5.01,000.00,031.3,025.2,000.0,039.2,031.2,33.1,0003.3,0026.33,0010.39,0008.27
2023-06-27 17:21:00,SystemResetWarning,0825.4,5.00,000.00,031.2,025.7,000.0,039.2,031.1,31.5,0003.5,0026.88,0010.47,0008.28
2023-06-27 17:22:00,SystemResetWarning,0825.4,5.00,000.00,031.1,026.1,000.0,039.3,031.1,31.8,0003.2,0026.93,0010.46,0008.28
2023-06-27 17:23:00,SystemResetWarning,0825.5,5.00,000.00,031.1,026.6,000.0,039.2,031.2,33.0,0003.1,0027.33,0010.46,0008.28
2023-06-27 17:24:00,SystemResetWarning,0825.5,5.01,000.00,031.0,027.0,000.0,039.2,031.3,34.3,0003.3,0025.90,0010.46,0008.30
2023-06-27 17:25:00,SystemResetWarning,0825.4,5.00,000.00,031.0,027.3,000.0,039.2,031.4,32.8,0003.4,0025.26,0010.43,0008.29
2023-06-27 17:26:00,SystemResetWarning,0825.5,5.00,000.00,031.0,027.6,000.0,039.2,031.4,33.0,0003.4,0025.07,0010.47,0008.31
2023-06-27 17:27:00,SystemResetWarning,0825.5,4.98,000.00,031.0,026.8,000.0,039.2,031.6,31.7,0003.1,0023.40,0010.41,0008.31
2023-06-27 17:28:00,SystemResetWarning,0825.4,5.00,000.00,031.0,025.3,000.0,039.1,031.6,31.5,0003.2,0024.05,0010.42,0008.34
2023-06-27 17:29:00,SystemResetWarning,0825.4,5.00,000.00,031.0,024.9,000.0,039.0,031.5,32.9,0003.2,0024.30,0010.43,0008.39
2023-06-27 17:30:00,SystemResetWarning,0825.3,4.99,000.00,030.8,025.2,000.0,039.0,031.2,34.9,0003.1,0025.29,0010.46,0008.42
2023-06-27 17:31:00,SystemResetWarning,0825.3,5.01,000.00,030.8,025.6,000.0,039.0,031.1,35.8,0003.1,0025.27,0010.53,0008.46
2023-06-27 17:32:00,SystemResetWarning,0825.4,5.02,000.00,031.0,026.1,000.0,039.0,031.2,34.6,0003.5,0025.15,0010.53,0008.49
2023-06-27 17:33:00,SystemResetWarning,0825.4,4.96,000.00,031.2,026.5,000.0,039.0,031.4,34.5,0003.5,0024.74,0010.57,0008.52
2023-06-27 17:34:00,SystemResetWarning,0825.5,5.05,000.00,031.3,026.9,000.0,039.0,031.5,33.0,0003.4,0024.44,0010.61,0008.56
2023-06-27 17:35:00,SystemResetWarning,0825.5,4.97,000.00,031.4,027.3,000.0,039.1,031.5,33.0,0003.6,0026.00,0010.61,0008.61
2023-06-27 17:36:00,SystemResetWarning,0825.6,5.02,000.00,031.5,027.6,000.0,039.1,031.6,32.2,0003.5,0026.65,0010.66,0008.66
2023-06-27 17:37:00,SystemResetWarning,0825.6,5.00,000.00,031.6,027.1,000.0,039.2,031.7,32.0,0003.4,0026.23,0010.65,0008.67
2023-06-27 17:38:00,SystemResetWarning,0825.6,4.97,000.00,031.6,025.6,000.0,039.1,031.6,32.1,0003.5,0026.63,0010.68,0008.68
2023-06-27 17:39:00,SystemResetWarning,0825.5,5.01,000.00,031.6,025.0,000.0,039.1,031.6,32.2,0003.1,0025.60,0010.69,0008.67
2023-06-27 17:40:00,SystemResetWarning,0825.5,5.01,000.00,031.5,025.2,000.0,039.1,031.3,33.7,0003.0,0024.95,0010.72,0008.67
2023-06-27 17:41:00,SystemResetWarning,0825.4,4.99,000.00,031.3,025.6,000.0,039.2,031.1,32.3,0002.5,0023.63,0010.70,0008.66
2023-06-27 17:42:00,SystemResetWarning,0825.4,5.00,000.00,031.3,026.1,000.0,039.2,031.1,31.8,0002.8,0023.54,0010.66,0008.64
2023-06-27 17:43:00,SystemResetWarning,0825.4,4.99,000.00,031.2,026.5,000.0,039.2,031.2,32.5,0002.7,0024.12,0010.62,0008.64
2023-06-27 17:44:00,SystemResetWarning,0825.3,4.99,000.00,031.2,026.9,000.0,039.2,031.3,32.0,0002.7,0025.24,0010.59,0008.62
2023-06-27 17:45:00,SystemResetWarning,0825.3,5.00,000.00,031.1,027.2,000.0,039.2,031.4,32.9,0003.0,0027.05,0010.54,0008.61
2023-06-27 17:46:00,SystemResetWarning,0825.3,5.00,000.00,031.1,027.4,000.0,039.2,031.5,32.1,0002.8,0025.34,0010.52,0008.60
2023-06-27 17:47:00,SystemResetWarning,0825.3,4.98,000.00,031.2,026.3,000.0,039.2,031.6,31.5,0002.6,0024.59,0010.53,0008.59
2023-06-27 17:48:00,SystemResetWarning,0825.3,5.01,000.00,031.1,025.0,000.0,039.1,031.5,32.3,0002.4,0025.54,0010.57,0008.61
2023-06-27 17:49:00,SystemResetWarning,0825.3,5.01,000.00,031.1,024.9,000.0,039.1,031.4,31.7,0002.7,0025.67,0010.59,0008.62
2023-06-27 17:50:00,SystemResetWarning,0825.3,5.01,000.00,030.9,025.2,000.0,039.1,031.1,31.1,0002.8,0024.97,0010.58,0008.64
2023-06-27 17:51:00,SystemResetWarning,0825.3,5.00,000.00,030.8,025.7,000.0,039.1,031.0,31.0,0003.2,0024.97,0010.59,0008.65
2023-06-27 17:52:00,SystemResetWarning,0825.3,4.99,000.00,030.7,026.1,000.0,039.0,031.0,30.8,0003.4,0025.28,0010.63,0008.69
2023-06-27 17:53:00,SystemResetWarning,0825.3,4.99,000.00,030.7,026.6,000.0,039.0,031.1,31.5,0003.7,0025.73,0010.63,0008.72
2023-06-27 17:54:00,SystemResetWarning,0825.3,5.00,000.00,030.7,027.0,000.0,039.0,031.2,33.1,0003.6,0025.56,0010.71,0008.74
2023-06-27 17:55:00,SystemResetWarning,0825.4,5.00,000.00,030.6,027.3,000.0,039.0,031.2,33.6,0003.6,0025.96,0010.83,0008.79
2023-06-27 17:56:00,SystemResetWarning,0825.4,5.01,000.00,030.6,027.5,000.0,039.0,031.3,33.9,0003.6,0023.97,0010.88,0008.83
2023-06-27 17:57:00,SystemResetWarning,0825.4,4.99,000.00,030.7,026.6,000.0,038.9,031.5,33.9,0003.6,0023.78,0010.93,0008.85
2023-06-27 17:58:00,SystemResetWarning,0825.4,5.00,000.00,030.7,025.2,000.0,038.8,031.3,31.2,0003.5,0023.88,0010.96,0008.90
2023-06-27 17:59:00,SystemResetWarning,0825.4,5.01,000.00,030.6,025.0,000.0,038.8,031.3,32.9,0003.8,0023.25,0010.99,0008.93
